| time (UTC) | temp F | wind direction | speed MPH | gust MPH | rain 1hr in | rain 24hr in | rain mn in | humidity % | barometer mb |
| 20260505181025 | 82 | 227 | 10.0 | 18.0 | 0.00 | 0.00 | 0.00 | 78 | 1007.6 |
| 20260505180042 | 81 | 213 | 12.0 | 22.0 | 0.00 | 0.00 | 0.00 | 78 | 1007.6 |
| 20260505175553 | 81 | 207 | 13.0 | 21.0 | 0.00 | 0.00 | 0.00 | 78 | 1007.6 |
| 20260505175055 | 81 | 191 | 12.0 | 20.0 | 0.00 | 0.00 | 0.00 | 78 | 1007.7 |
| 20260505174525 | 81 | 219 | 10.0 | 15.0 | 0.00 | 0.00 | 0.00 | 79 | 1007.8 |
| 20260505174035 | 80 | 164 | 11.0 | 15.0 | 0.00 | 0.00 | 0.00 | 79 | 1007.9 |
| 20260505173055 | 81 | 232 | 12.0 | 21.0 | 0.00 | 0.00 | 0.00 | 77 | 1007.8 |
| 20260505172556 | 81 | 211 | 11.0 | 21.0 | 0.00 | 0.00 | 0.00 | 79 | 1007.8 |
| 20260505171624 | 81 | 202 | 14.0 | 22.0 | 0.00 | 0.00 | 0.00 | 78 | 1007.9 |
| 20260505171030 | 80 | 195 | 11.0 | 17.0 | 0.00 | 0.00 | 0.00 | 80 | 1007.9 |
| 20260505170637 | 80 | 232 | 8.0 | 17.0 | 0.00 | 0.00 | 0.00 | 81 | 1008.1 |
| 20260505170038 | 80 | 216 | 9.0 | 21.0 | 0.00 | 0.00 | 0.00 | 82 | 1008.1 |
| 20260505165546 | 79 | 211 | 13.0 | 21.0 | 0.00 | 0.00 | 0.00 | 82 | 1008.1 |
| 20260505164606 | 79 | 223 | 11.0 | 18.0 | 0.00 | 0.00 | 0.00 | 83 | 1008.2 |
| 20260505164056 | 78 | 210 | 10.0 | 16.0 | 0.00 | 0.00 | 0.00 | 83 | 1008.1 |
| 20260505163056 | 78 | 202 | 8.0 | 21.0 | 0.00 | 0.00 | 0.00 | 84 | 1008.2 |
| 20260505162606 | 78 | 242 | 13.0 | 21.0 | 0.00 | 0.00 | 0.00 | 83 | 1008.1 |
| 20260505162111 | 78 | 213 | 9.0 | 19.0 | 0.00 | 0.00 | 0.00 | 85 | 1008.2 |
| 20260505161537 | 77 | 215 | 12.0 | 19.0 | 0.00 | 0.00 | 0.00 | 85 | 1008.2 |
| 20260505161044 | 77 | 221 | 10.0 | 18.0 | 0.00 | 0.00 | 0.00 | 86 | 1008.2 |
| 20260505153118 | 75 | 209 | 6.0 | 13.0 | 0.00 | 0.00 | 0.00 | 88 | 1008.0 |
| 20260505152527 | 75 | 207 | 10.0 | 13.0 | 0.00 | 0.00 | 0.00 | 88 | 1008.1 |
| 20260505152131 | 75 | 198 | 10.0 | 13.0 | 0.00 | 0.00 | 0.00 | 88 | 1008.1 |
| 20260505151540 | 75 | 209 | 7.0 | 13.0 | 0.00 | 0.00 | 0.00 | 88 | 1008.1 |
| 20260505151053 | 75 | 199 | 10.0 | 13.0 | 0.00 | 0.00 | 0.00 | 88 | 1008.0 |
| 20260505140120 | 74 | 196 | 7.0 | 13.0 | 0.00 | 0.00 | 0.00 | 89 | 1007.8 |
| 20260505130116 | 72 | 173 | 10.0 | 17.0 | 0.00 | 0.00 | 0.00 | 90 | 1007.3 |
| 20260505124626 | 72 | 190 | 11.0 | 16.0 | 0.00 | 0.00 | 0.00 | 90 | 1007.3 |
| 20260505124116 | 72 | 219 | 10.0 | 16.0 | 0.00 | 0.00 | 0.00 | 91 | 1007.4 |
| 20260505123618 | 72 | 180 | 10.0 | 15.0 | 0.00 | 0.00 | 0.00 | 90 | 1007.3 |
| 20260505123028 | 72 | 163 | 8.0 | 14.0 | 0.00 | 0.00 | 0.00 | 91 | 1007.3 |
| 20260505122536 | 72 | 215 | 9.0 | 15.0 | 0.00 | 0.00 | 0.00 | 91 | 1007.4 |
| 20260505121634 | 72 | 213 | 9.0 | 15.0 | 0.00 | 0.00 | 0.00 | 91 | 1007.0 |
| 20260505121054 | 72 | 191 | 9.0 | 16.0 | 0.00 | 0.00 | 0.00 | 91 | 1006.9 |
| 20260505120601 | 71 | 215 | 10.0 | 15.0 | 0.00 | 0.00 | 0.00 | 91 | 1006.9 |
| 20260505120024 | 71 | 208 | 8.0 | 15.0 | 0.00 | 0.00 | 0.00 | 91 | 1007.0 |
| 20260505115635 | 71 | 202 | 8.0 | 15.0 | 0.00 | 0.00 | 0.00 | 91 | 1007.1 |
| 20260505114614 | 71 | 207 | 10.0 | 14.0 | 0.00 | 0.00 | 0.00 | 91 | 1007.1 |
| 20260505114058 | 71 | 204 | 10.0 | 17.0 | 0.00 | 0.00 | 0.00 | 91 | 1007.0 |
| 20260505113608 | 71 | 194 | 10.0 | 17.0 | 0.00 | 0.00 | 0.00 | 91 | 1007.1 |
| 20260505112533 | 71 | 200 | 11.0 | 16.0 | 0.00 | 0.00 | 0.00 | 91 | 1006.9 |
| 20260505111553 | 71 | 200 | 10.0 | 17.0 | 0.00 | 0.00 | 0.00 | 91 | 1007.0 |
| 20260505111100 | 71 | 202 | 10.0 | 20.0 | 0.00 | 0.00 | 0.00 | 91 | 1006.8 |
| 20260505110557 | 71 | 189 | 12.0 | 18.0 | 0.00 | 0.00 | 0.00 | 91 | 1006.7 |
| 20260505102114 | 70 | 186 | 10.0 | 15.0 | 0.00 | 0.00 | 0.00 | 90 | 1006.9 |
| 20260505101534 | 70 | 190 | 9.0 | 13.0 | 0.00 | 0.00 | 0.00 | 91 | 1007.0 |
| 20260505101045 | 70 | 200 | 9.0 | 15.0 | 0.00 | 0.00 | 0.00 | 90 | 1006.8 |
| 20260505100044 | 70 | 200 | 11.0 | 19.0 | 0.00 | 0.00 | 0.00 | 91 | 1007.1 |
| 20260505095553 | 70 | 196 | 9.0 | 13.0 | 0.00 | 0.00 | 0.00 | 90 | 1007.1 |
| 20260505094547 | 70 | 214 | 8.0 | 15.0 | 0.00 | 0.00 | 0.00 | 90 | 1007.0 |
| 20260505094053 | 70 | 192 | 10.0 | 15.0 | 0.00 | 0.00 | 0.00 | 90 | 1007.0 |
| 20260505093558 | 70 | 192 | 8.0 | 13.0 | 0.00 | 0.00 | 0.00 | 90 | 1006.9 |
| 20260505093029 | 70 | 186 | 9.0 | 14.0 | 0.00 | 0.00 | 0.00 | 90 | 1007.0 |
| 20260505092532 | 70 | 200 | 9.0 | 15.0 | 0.00 | 0.00 | 0.00 | 90 | 1007.1 |
| 20260505091552 | 71 | 202 | 10.0 | 14.0 | 0.00 | 0.00 | 0.00 | 89 | 1007.3 |
| 20260505091102 | 71 | 208 | 8.0 | 19.0 | 0.00 | 0.00 | 0.00 | 89 | 1007.3 |
| 20260505090558 | 71 | 217 | 12.0 | 18.0 | 0.00 | 0.00 | 0.00 | 89 | 1007.2 |
| 20260505090025 | 71 | 209 | 11.0 | 17.0 | 0.00 | 0.00 | 0.00 | 89 | 1007.1 |
| 20260505085541 | 71 | 184 | 10.0 | 18.0 | 0.00 | 0.00 | 0.00 | 89 | 1007.1 |
| 20260505085141 | 71 | 196 | 10.0 | 18.0 | 0.00 | 0.00 | 0.00 | 89 | 1007.2 |
| 20260505084549 | 71 | 202 | 11.0 | 16.0 | 0.00 | 0.00 | 0.00 | 89 | 1007.3 |
| 20260505084102 | 71 | 204 | 13.0 | 16.0 | 0.00 | 0.00 | 0.00 | 89 | 1007.4 |
| 20260505083103 | 71 | 194 | 10.0 | 14.0 | 0.00 | 0.00 | 0.00 | 89 | 1007.7 |
| 20260505082606 | 71 | 186 | 8.0 | 16.0 | 0.00 | 0.00 | 0.00 | 89 | 1007.8 |
| 20260505082116 | 71 | 205 | 9.0 | 14.0 | 0.00 | 0.00 | 0.00 | 89 | 1007.8 |
| 20260505081544 | 71 | 204 | 9.0 | 14.0 | 0.00 | 0.00 | 0.00 | 88 | 1007.8 |
| 20260505081046 | 71 | 219 | 9.0 | 16.0 | 0.00 | 0.00 | 0.00 | 88 | 1007.7 |
| 20260505080109 | 71 | 199 | 8.0 | 13.0 | 0.00 | 0.00 | 0.00 | 88 | 1007.9 |
| 20260505075601 | 71 | 190 | 8.0 | 12.0 | 0.00 | 0.00 | 0.00 | 88 | 1008.0 |
| 20260505075101 | 71 | 190 | 8.0 | 12.0 | 0.00 | 0.00 | 0.00 | 88 | 1008.0 |
| 20260505074531 | 71 | 185 | 9.0 | 15.0 | 0.00 | 0.00 | 0.00 | 88 | 1007.9 |
| 20260505074123 | 71 | 203 | 9.0 | 13.0 | 0.00 | 0.00 | 0.00 | 88 | 1007.9 |
| 20260505073626 | 71 | 196 | 8.0 | 15.0 | 0.00 | 0.00 | 0.00 | 88 | 1008.1 |
| 20260505073049 | 70 | 180 | 9.0 | 15.0 | 0.00 | 0.00 | 0.00 | 88 | 1008.2 |
| 20260505072558 | 70 | 190 | 7.0 | 10.0 | 0.00 | 0.00 | 0.00 | 88 | 1008.2 |
| 20260505071620 | 70 | 189 | 8.0 | 14.0 | 0.00 | 0.00 | 0.00 | 88 | 1008.4 |
| 20260505071028 | 70 | 196 | 7.0 | 10.0 | 0.00 | 0.00 | 0.00 | 88 | 1008.4 |
| 20260505070636 | 70 | 191 | 7.0 | 10.0 | 0.00 | 0.00 | 0.00 | 88 | 1008.5 |
| 20260505070044 | 70 | 175 | 7.0 | 10.0 | 0.00 | 0.00 | 0.00 | 88 | 1008.4 |
| 20260505065526 | 70 | 183 | 7.0 | 10.0 | 0.00 | 0.00 | 0.00 | 88 | 1008.6 |
| 20260505065034 | 70 | 185 | 7.0 | 11.0 | 0.00 | 0.00 | 0.00 | 88 | 1008.6 |
| 20260505064536 | 70 | 178 | 7.0 | 12.0 | 0.00 | 0.00 | 0.00 | 88 | 1008.6 |
| 20260505064046 | 70 | 180 | 7.0 | 13.0 | 0.00 | 0.00 | 0.00 | 88 | 1008.6 |
| 20260505063547 | 70 | 178 | 8.0 | 14.0 | 0.00 | 0.00 | 0.00 | 88 | 1008.5 |
| 20260505063026 | 70 | 172 | 8.0 | 14.0 | 0.00 | 0.00 | 0.00 | 88 | 1008.4 |
| 20260505062535 | 70 | 147 | 8.0 | 14.0 | 0.00 | 0.00 | 0.00 | 87 | 1008.4 |
| 20260505062044 | 70 | 183 | 8.0 | 15.0 | 0.00 | 0.00 | 0.00 | 87 | 1008.5 |
| 20260505061536 | 70 | 175 | 8.0 | 15.0 | 0.00 | 0.00 | 0.00 | 87 | 1008.5 |
| 20260505061025 | 70 | 185 | 9.0 | 15.0 | 0.00 | 0.00 | 0.00 | 87 | 1008.5 |
| 20260505060524 | 70 | 182 | 10.0 | 15.0 | 0.00 | 0.00 | 0.00 | 87 | 1008.5 |
| 20260505060028 | 70 | 146 | 10.0 | 14.0 | 0.00 | 0.00 | 0.00 | 87 | 1008.5 |
| 20260505055556 | 70 | 177 | 10.0 | 13.0 | 0.00 | 0.00 | 0.00 | 86 | 1008.5 |
| 20260505055043 | 70 | 181 | 10.0 | 20.0 | 0.00 | 0.00 | 0.00 | 86 | 1008.5 |
| 20260505054535 | 70 | 186 | 10.0 | 19.0 | 0.00 | 0.00 | 0.00 | 86 | 1008.5 |
| 20260505054112 | 70 | 182 | 11.0 | 20.0 | 0.00 | 0.00 | 0.00 | 86 | 1008.6 |
| 20260505053533 | 70 | 180 | 12.0 | 17.0 | 0.00 | 0.00 | 0.00 | 86 | 1008.7 |
| 20260505053033 | 70 | 189 | 10.0 | 16.0 | 0.00 | 0.00 | 0.00 | 86 | 1008.8 |
| 20260505052542 | 70 | 185 | 9.0 | 16.0 | 0.00 | 0.00 | 0.00 | 86 | 1008.7 |
| 20260505052050 | 70 | 181 | 9.0 | 15.0 | 0.00 | 0.00 | 0.00 | 86 | 1008.8 |
| 20260505051542 | 70 | 185 | 11.0 | 14.0 | 0.00 | 0.00 | 0.00 | 85 | 1008.7 |
| 20260505051033 | 70 | 192 | 10.0 | 16.0 | 0.00 | 0.00 | 0.00 | 85 | 1008.7 |
| 20260505050536 | 71 | 191 | 10.0 | 16.0 | 0.00 | 0.00 | 0.00 | 85 | 1008.8 |
| 20260505050122 | 71 | 184 | 11.0 | 14.0 | 0.00 | 0.00 | 0.00 | 85 | 1008.8 |
| 20260505041531 | 71 | 172 | 11.0 | 16.0 | 0.00 | 0.00 | 0.00 | 83 | 1009.3 |
| 20260505041034 | 71 | 171 | 10.0 | 16.0 | 0.00 | 0.00 | 0.00 | 83 | 1009.2 |
| 20260505040104 | 72 | 188 | 8.0 | 15.0 | 0.00 | 0.00 | 0.00 | 82 | 1009.3 |
| 20260505035611 | 72 | 171 | 11.0 | 15.0 | 0.00 | 0.00 | 0.00 | 81 | 1009.2 |
| 20260505035117 | 72 | 191 | 11.0 | 17.0 | 0.00 | 0.00 | 0.00 | 81 | 1009.2 |
| 20260505034529 | 72 | 189 | 10.0 | 18.0 | 0.00 | 0.00 | 0.00 | 81 | 1009.0 |
| 20260505034030 | 72 | 172 | 12.0 | 18.0 | 0.00 | 0.00 | 0.00 | 81 | 1008.9 |
| 20260505033052 | 72 | 189 | 10.0 | 14.0 | 0.00 | 0.00 | 0.00 | 81 | 1009.1 |
| 20260505032603 | 73 | 187 | 9.0 | 13.0 | 0.00 | 0.00 | 0.00 | 81 | 1009.2 |
| 20260505031603 | 73 | 165 | 9.0 | 17.0 | 0.00 | 0.00 | 0.00 | 80 | 1009.0 |
| 20260505031053 | 73 | 158 | 9.0 | 17.0 | 0.00 | 0.00 | 0.00 | 80 | 1009.1 |
| 20260505030555 | 73 | 186 | 9.0 | 11.0 | 0.00 | 0.00 | 0.00 | 79 | 1009.1 |
| 20260505030025 | 73 | 175 | 9.0 | 12.0 | 0.00 | 0.00 | 0.00 | 79 | 1009.2 |
| 20260505025528 | 73 | 169 | 8.0 | 13.0 | 0.00 | 0.00 | 0.00 | 79 | 1009.2 |
| 20260505024556 | 74 | 186 | 9.0 | 19.0 | 0.00 | 0.00 | 0.00 | 78 | 1009.1 |
| 20260505024059 | 74 | 162 | 10.0 | 15.0 | 0.00 | 0.00 | 0.00 | 78 | 1009.0 |
| 20260505023118 | 74 | 188 | 10.0 | 17.0 | 0.00 | 0.00 | 0.00 | 78 | 1009.0 |
| 20260505022528 | 74 | 166 | 11.0 | 17.0 | 0.00 | 0.00 | 0.00 | 78 | 1008.8 |
| 20260505021027 | 74 | 189 | 10.0 | 18.0 | 0.00 | 0.00 | 0.00 | 77 | 1008.9 |
| 20260505020633 | 74 | 167 | 8.0 | 17.0 | 0.00 | 0.00 | 0.00 | 77 | 1008.9 |
| 20260505020040 | 74 | 157 | 7.0 | 10.0 | 0.00 | 0.00 | 0.00 | 77 | 1008.9 |
| 20260505015542 | 75 | 169 | 7.0 | 15.0 | 0.00 | 0.00 | 0.00 | 77 | 1008.8 |
| 20260505014603 | 75 | 170 | 8.0 | 12.0 | 0.00 | 0.00 | 0.00 | 76 | 1008.7 |
| 20260505014113 | 75 | 165 | 8.0 | 14.0 | 0.00 | 0.00 | 0.00 | 75 | 1008.7 |
| 20260505013623 | 75 | 190 | 9.0 | 14.0 | 0.00 | 0.00 | 0.00 | 76 | 1008.6 |
| 20260505013045 | 75 | 175 | 9.0 | 12.0 | 0.00 | 0.00 | 0.00 | 75 | 1008.6 |
| 20260505012553 | 76 | 169 | 8.0 | 18.0 | 0.00 | 0.00 | 0.00 | 74 | 1008.6 |
| 20260505011553 | 76 | 175 | 11.0 | 17.0 | 0.00 | 0.00 | 0.00 | 74 | 1008.5 |
| 20260505011058 | 76 | 123 | 7.0 | 17.0 | 0.00 | 0.00 | 0.00 | 73 | 1008.5 |
| 20260505010057 | 77 | 190 | 10.0 | 16.0 | 0.00 | 0.00 | 0.00 | 73 | 1008.3 |
| 20260505005546 | 77 | 190 | 10.0 | 14.0 | 0.00 | 0.00 | 0.00 | 73 | 1008.4 |
| 20260505004604 | 77 | 194 | 8.0 | 16.0 | 0.00 | 0.00 | 0.00 | 73 | 1008.4 |
| 20260505004117 | 77 | 198 | 10.0 | 16.0 | 0.00 | 0.00 | 0.00 | 72 | 1008.4 |
| 20260505003619 | 77 | 141 | 10.0 | 14.0 | 0.00 | 0.00 | 0.00 | 72 | 1008.4 |
| 20260505003030 | 77 | 220 | 7.0 | 16.0 | 0.00 | 0.00 | 0.00 | 72 | 1008.4 |
| 20260505002541 | 78 | 155 | 10.0 | 16.0 | 0.00 | 0.00 | 0.00 | 72 | 1008.5 |
| 20260505001601 | 78 | 192 | 11.0 | 15.0 | 0.00 | 0.00 | 0.00 | 71 | 1008.6 |
| 20260505001105 | 78 | 204 | 9.0 | 14.0 | 0.00 | 0.00 | 0.00 | 71 | 1008.6 |
| 20260505000121 | 78 | 182 | 11.0 | 19.0 | 0.00 | 0.00 | 0.00 | 71 | 1008.7 |
| 20260504235610 | 78 | 195 | 13.0 | 19.0 | 0.00 | 0.00 | 0.00 | 71 | 1008.6 |
| 20260504235026 | 78 | 161 | 10.0 | 16.0 | 0.00 | 0.00 | 0.00 | 71 | 1008.6 |
| 20260504234528 | 78 | 166 | 9.0 | 16.0 | 0.00 | 0.00 | 0.00 | 71 | 1008.8 |
| 20260504234114 | 78 | 143 | 13.0 | 18.0 | 0.00 | 0.00 | 0.00 | 71 | 1008.8 |
| 20260504233621 | 78 | 150 | 11.0 | 17.0 | 0.00 | 0.00 | 0.00 | 71 | 1008.9 |
| 20260504233025 | 78 | 179 | 12.0 | 17.0 | 0.00 | 0.00 | 0.00 | 70 | 1008.8 |
| 20260504232527 | 79 | 192 | 10.0 | 19.0 | 0.00 | 0.00 | 0.00 | 70 | 1009.0 |
| 20260504231554 | 79 | 190 | 13.0 | 19.0 | 0.00 | 0.00 | 0.00 | 70 | 1008.8 |
| 20260504231058 | 79 | 180 | 11.0 | 18.0 | 0.00 | 0.00 | 0.00 | 70 | 1008.9 |
| 20260504230608 | 79 | 171 | 10.0 | 18.0 | 0.00 | 0.00 | 0.00 | 69 | 1009.0 |
| 20260504230028 | 79 | 163 | 11.0 | 18.0 | 0.00 | 0.00 | 0.00 | 68 | 1009.0 |
| 20260504225538 | 80 | 179 | 13.0 | 20.0 | 0.00 | 0.00 | 0.00 | 68 | 1008.9 |
| 20260504224541 | 80 | 183 | 13.0 | 17.0 | 0.00 | 0.00 | 0.00 | 66 | 1009.2 |
| 20260504224051 | 80 | 166 | 9.0 | 16.0 | 0.00 | 0.00 | 0.00 | 66 | 1009.2 |
| 20260504223053 | 80 | 132 | 10.0 | 17.0 | 0.00 | 0.00 | 0.00 | 66 | 1009.2 |
| 20260504222557 | 80 | 162 | 13.0 | 17.0 | 0.00 | 0.00 | 0.00 | 64 | 1009.3 |
| 20260504222105 | 81 | 190 | 12.0 | 17.0 | 0.00 | 0.00 | 0.00 | 62 | 1009.1 |
| 20260504221532 | 81 | 191 | 11.0 | 18.0 | 0.00 | 0.00 | 0.00 | 63 | 1009.2 |
| 20260504221034 | 81 | 150 | 12.0 | 18.0 | 0.00 | 0.00 | 0.00 | 63 | 1009.2 |
| 20260504220059 | 81 | 151 | 9.0 | 16.0 | 0.00 | 0.00 | 0.00 | 64 | 1009.2 |
| 20260504215609 | 81 | 196 | 9.0 | 16.0 | 0.00 | 0.00 | 0.00 | 64 | 1009.3 |
| 20260504215120 | 81 | 183 | 11.0 | 19.0 | 0.00 | 0.00 | 0.00 | 64 | 1009.5 |
| 20260504214540 | 81 | 142 | 13.0 | 19.0 | 0.00 | 0.00 | 0.00 | 63 | 1009.5 |
| 20260504214052 | 80 | 194 | 11.0 | 18.0 | 0.00 | 0.00 | 0.00 | 64 | 1009.6 |
| 20260504213050 | 80 | 185 | 11.0 | 16.0 | 0.00 | 0.00 | 0.00 | 65 | 1009.8 |
| 20260504212535 | 80 | 177 | 11.0 | 15.0 | 0.00 | 0.00 | 0.00 | 63 | 1009.9 |
| 20260504211559 | 80 | 169 | 10.0 | 16.0 | 0.00 | 0.00 | 0.00 | 64 | 1010.1 |
| 20260504211109 | 80 | 172 | 8.0 | 15.0 | 0.00 | 0.00 | 0.00 | 64 | 1010.3 |
| 20260504210615 | 80 | 185 | 10.0 | 15.0 | 0.00 | 0.00 | 0.00 | 64 | 1010.3 |
| 20260504210040 | 80 | 215 | 10.0 | 13.0 | 0.00 | 0.00 | 0.00 | 65 | 1010.5 |
| 20260504205544 | 80 | 195 | 9.0 | 12.0 | 0.00 | 0.00 | 0.00 | 64 | 1010.5 |
| 20260504204553 | 80 | 225 | 11.0 | 14.0 | 0.00 | 0.00 | 0.00 | 63 | 1010.6 |
| 20260504204057 | 80 | 199 | 10.0 | 13.0 | 0.00 | 0.00 | 0.00 | 64 | 1010.8 |
| 20260504203607 | 80 | 201 | 8.0 | 13.0 | 0.00 | 0.00 | 0.00 | 64 | 1010.8 |
| 20260504203038 | 80 | 186 | 11.0 | 15.0 | 0.00 | 0.00 | 0.00 | 65 | 1010.9 |
| 20260504202541 | 80 | 185 | 11.0 | 15.0 | 0.00 | 0.00 | 0.00 | 64 | 1011.0 |
| 20260504201601 | 80 | 225 | 10.0 | 16.0 | 0.00 | 0.00 | 0.00 | 63 | 1011.1 |
| 20260504201050 | 80 | 204 | 12.0 | 19.0 | 0.00 | 0.00 | 0.00 | 64 | 1011.1 |
| 20260504200051 | 80 | 185 | 11.0 | 17.0 | 0.00 | 0.00 | 0.00 | 64 | 1011.3 |
| 20260504195554 | 80 | 180 | 11.0 | 14.0 | 0.00 | 0.00 | 0.00 | 63 | 1011.4 |
| 20260504195104 | 80 | 213 | 9.0 | 13.0 | 0.00 | 0.00 | 0.00 | 64 | 1011.5 |
| 20260504194526 | 79 | 206 | 8.0 | 16.0 | 0.00 | 0.00 | 0.00 | 65 | 1011.7 |
| 20260504194137 | 79 | 196 | 10.0 | 16.0 | 0.00 | 0.00 | 0.00 | 64 | 1011.9 |
| 20260504193622 | 79 | 167 | 11.0 | 16.0 | 0.00 | 0.00 | 0.00 | 65 | 1011.9 |
| 20260504193053 | 79 | 189 | 12.0 | 16.0 | 0.00 | 0.00 | 0.00 | 65 | 1012.0 |
| 20260504192542 | 79 | 172 | 10.0 | 16.0 | 0.00 | 0.00 | 0.00 | 65 | 1011.9 |
| 20260504191602 | 79 | 211 | 10.0 | 17.0 | 0.00 | 0.00 | 0.00 | 66 | 1012.1 |
| 20260504191044 | 79 | 171 | 12.0 | 17.0 | 0.00 | 0.00 | 0.00 | 65 | 1012.1 |
| 20260504190045 | 78 | 184 | 11.0 | 17.0 | 0.00 | 0.00 | 0.00 | 65 | 1012.3 |
| 20260504185537 | 78 | 162 | 9.0 | 17.0 | 0.00 | 0.00 | 0.00 | 65 | 1012.3 |
| 20260504184555 | 78 | 159 | 10.0 | 14.0 | 0.00 | 0.00 | 0.00 | 67 | 1012.6 |
| 20260504184059 | 77 | 171 | 9.0 | 17.0 | 0.00 | 0.00 | 0.00 | 66 | 1012.6 |
| 20260504183109 | 77 | 168 | 8.0 | 17.0 | 0.00 | 0.00 | 0.00 | 65 | 1012.8 |
| 20260504182550 | 77 | 158 | 8.0 | 15.0 | 0.00 | 0.00 | 0.00 | 67 | 1012.8 |
| 20260504181611 | 77 | 195 | 10.0 | 18.0 | 0.00 | 0.00 | 0.00 | 66 | 1012.9 |